GLENN Weather Reports


Display with metric or nautical units.
time (UTC)temp
F
wind
direction
speed
MPH
gust
MPH
rain 1hr
in
rain 24hr
in
rain mn
in
humidity
%
barometer
mb
20260502163021 58 342 2.0 5.0 0.00 0.00 0.00 39 1020.0
20260502161522 57 352 2.0 4.0 0.00 0.00 0.00 37 1020.0
20260502151524 53 5 1.0 3.0 0.00 0.00 0.00 42 1020.4
20260502123028 45 78 0.0 2.0 0.00 0.00 0.00 39 1019.9
20260502121524 45 113 3.0 4.0 0.00 0.00 0.00 40 1019.8
20260502114505 46 108 2.0 4.0 0.00 0.00 0.00 39 1019.7
20260502113010 45 101 3.0 4.0 0.00 0.00 0.00 39 1019.8
20260502111510 46 141 1.0 2.0 0.00 0.00 0.00 38 1019.8
20260502110010 45 130 0.0 2.0 0.00 0.00 0.00 38 1019.6
20260502104512 47 100 2.0 3.0 0.00 0.00 0.00 36 1019.6
20260502103006 48 101 2.0 3.0 0.00 0.00 0.00 35 1019.5
20260502101514 48 76 2.0 3.0 0.00 0.00 0.00 34 1019.4
20260502091510 45 104 0.0 3.0 0.00 0.00 0.00 36 1019.4
20260502071516 51 190 1.0 2.0 0.00 0.00 0.00 28 1019.1
20260502070022 51 124 2.0 3.0 0.00 0.00 0.00 28 1019.1
20260502064516 51 112 2.0 3.0 0.00 0.00 0.00 27 1019.1
20260502063027 52 117 3.0 4.0 0.00 0.00 0.00 28 1019.0
20260502061519 50 170 0.0 0.0 0.00 0.00 0.00 29 1018.9
20260502060022 50 257 0.0 2.0 0.00 0.00 0.00 30 1019.1
20260502054525 51 200 0.0 2.0 0.00 0.00 0.00 30 1019.0
20260502053018 53 99 3.0 4.0 0.00 0.00 0.00 26 1018.9
20260502051520 54 94 3.0 6.0 0.00 0.00 0.00 25 1019.0
20260502050019 53 104 4.0 7.0 0.00 0.00 0.00 27 1019.0
20260502044522 53 109 5.0 8.0 0.00 0.00 0.00 27 1019.0
20260502043023 53 121 6.0 7.0 0.00 0.00 0.00 27 1019.0
20260502041521 53 109 6.0 7.0 0.00 0.00 0.00 26 1019.1
20260502040023 53 105 6.0 8.0 0.00 0.00 0.00 26 1019.0
20260502034525 53 105 6.0 8.0 0.00 0.00 0.00 27 1019.0
20260502033024 53 111 5.0 7.0 0.00 0.00 0.00 26 1018.9
20260502031520 53 114 5.0 7.0 0.00 0.00 0.00 24 1018.8
20260502030018 54 106 6.0 8.0 0.00 0.00 0.00 24 1018.6
20260502024504 54 107 7.0 9.0 0.00 0.00 0.00 24 1018.5
20260502023010 56 105 6.0 7.0 0.00 0.00 0.00 23 1018.5
20260502021517 61 101 3.0 3.0 0.00 0.00 0.00 21 1018.6
20260502020016 65 299 0.0 2.0 0.00 0.00 0.00 15 1018.6
20260502014526 66 299 0.0 1.0 0.00 0.00 0.00 13 1018.6
20260502013009 69 99 0.0 2.0 0.00 0.00 0.00 11 1018.7
20260502011514 67 99 0.0 2.0 0.00 0.00 0.00 19 1018.8
20260502010017 66 25 0.0 2.0 0.00 0.00 0.00 18 1018.9
20260502004539 66 9 1.0 3.0 0.00 0.00 0.00 17 1019.1
20260502003023 66 46 0.0 2.0 0.00 0.00 0.00 20 1019.1
20260502001511 66 207 0.0 4.0 0.00 0.00 0.00 14 1019.1
20260502000014 65 335 1.0 6.0 0.00 0.00 0.00 14 1019.2
20260501234530 66 336 2.0 6.0 0.00 0.00 0.00 17 1019.2
20260501233025 65 213 2.0 6.0 0.00 0.00 0.00 17 1019.3
20260501231536 65 80 1.0 4.0 0.00 0.00 0.00 17 1019.4
20260501230013 67 273 2.0 6.0 0.00 0.00 0.00 20 1019.4
20260501224517 65 218 1.0 4.0 0.00 0.00 0.00 24 1019.6
20260501223024 64 209 2.0 4.0 0.00 0.00 0.00 19 1019.6
20260501221524 64 284 3.0 9.0 0.00 0.00 0.00 23 1019.9
20260501220013 63 240 2.0 8.0 0.00 0.00 0.00 22 1020.2
20260501214520 63 236 2.0 6.0 0.00 0.00 0.00 24 1020.4
20260501213021 63 213 3.0 9.0 0.00 0.00 0.00 24 1020.6
20260501211527 63 288 4.0 9.0 0.00 0.00 0.00 24 1020.7
20260501210024 62 321 5.0 9.0 0.00 0.00 0.00 25 1020.8
20260501204516 62 246 4.0 8.0 0.00 0.00 0.00 28 1020.9
20260501203018 61 281 3.0 7.0 0.00 0.00 0.00 26 1021.0
20260501201523 61 312 4.0 8.0 0.00 0.00 0.00 25 1021.1
20260501200025 60 290 5.0 9.0 0.00 0.00 0.00 27 1021.2
20260501194529 60 283 6.0 10.0 0.00 0.00 0.00 26 1021.3
20260501193023 60 59 1.0 4.0 0.00 0.00 0.00 29 1021.4
20260501191526 59 61 1.0 8.0 0.00 0.00 0.00 28 1021.4
20260501190023 58 350 4.0 9.0 0.00 0.00 0.00 27 1021.5
20260501184528 59 279 4.0 7.0 0.00 0.00 0.00 31 1021.7
20260501183028 58 352 2.0 6.0 0.00 0.00 0.00 31 1021.7
20260501181521 58 312 2.0 4.0 0.00 0.00 0.00 36 1021.8
20260501180011 57 248 1.0 7.0 0.00 0.00 0.00 32 1022.0
20260501174517 56 262 3.0 8.0 0.00 0.00 0.00 32 1022.1
20260501173012 56 55 2.0 7.0 0.00 0.00 0.00 32 1022.2
20260501171519 56 352 1.0 4.0 0.00 0.00 0.00 31 1022.3